This is the latest recevied weather packets stored in our database for station/object 9A3SWO. If no packets are shown the sender has not sent any weather packets the latest 10 day(s).
| Time | Temp. | Humidity | Pressure | Rain* | Wind** | Luminosity | Snow |
|---|---|---|---|---|---|---|---|
| 1788136112 | 26.11° C | 47% | 1016.1 hPa | - | - | - | - |
| 1788135512 | 26.11° C | 47% | 1016.1 hPa | - | - | - | - |
| 1788134912 | 26.11° C | 47% | 1016.1 hPa | - | - | - | - |
| 1788134312 | 26.11° C | 47% | 1015.9 hPa | - | - | - | - |
| 1788133712 | 26.67° C | 47% | 1016 hPa | - | - | - | - |
| 1788133113 | 26.67° C | 47% | 1016 hPa | - | - | - | - |
| 1788132512 | 26.67° C | 47% | 1016 hPa | - | - | - | - |
| 1788131912 | 26.67° C | 47% | 1016.2 hPa | - | - | - | - |
| 1788131312 | 26.67° C | 47% | 1016.2 hPa | - | - | - | - |
| 1788130712 | 26.67° C | 47% | 1016.2 hPa | - | - | - | - |
| 1788130113 | 26.67° C | 47% | 1016.2 hPa | - | - | - | - |
| 1788129512 | 26.11° C | 48% | 1016.3 hPa | - | - | - | - |
| 1788128912 | 25° C | 50% | 1016.4 hPa | - | - | - | - |
| 1788128312 | 25° C | 50% | 1016.4 hPa | - | - | - | - |
| 1788127712 | 25° C | 50% | 1016.4 hPa | - | - | - | - |
| 1788127112 | 25° C | 50% | 1016.3 hPa | - | - | - | - |
| 1788126512 | 25° C | 50% | 1016.4 hPa | - | - | - | - |
| 1788125912 | 25.56° C | 49% | 1016.4 hPa | - | - | - | - |
| 1788125312 | 25.56° C | 49% | 1016.4 hPa | - | - | - | - |
| 1788124712 | 26.11° C | 48% | 1016.3 hPa | - | - | - | - |
| 1788124111 | 27.78° C | 44% | 1016.2 hPa | - | - | - | - |
| 1788123512 | 27.78° C | 45% | 1016.1 hPa | - | - | - | - |
| 1788122911 | 27.78° C | 44% | 1016.1 hPa | - | - | - | - |
| 1788122312 | 28.33° C | 43% | 1015.9 hPa | - | - | - | - |
| 1788121711 | 28.33° C | 44% | 1015.9 hPa | - | - | - | - |
* Rain since midnight (hover to see other rain measurements)
** Current wind speed in m/s (hover to see current wind gust speed)